Location: Bogotá
(4.6533°N, 74.0837°W)
Time: 13:33:51
(UTC+00:00)

ISS - Pass Details

Date: 09 July 2025
Orbit: 413 x 417 km, 51.6° (Epoch: 13 July)

Event Time Altitude Azimuth Distance (km) Brightness Sun altitude
Rises 09:35:57 0° 355° (N) 2,340 0.3 -17.8°
Reaches altitude 10° 09:39:06 10° 28° (NNE) 1,481 -0.2 -17.1°
Maximum altitude 09:40:28 12° 52° (NE) 1,363 0.0 -16.8°
Drops below altitude 10° 09:41:51 10° 77° (ENE) 1,483 0.3 -16.5°
Sets 09:45:00 0° 110° (ESE) 2,347 0.8 -15.8°
